Drummond Island, MI

2:32 AM EDT on August 30, 2016 (GMT -0400)
Drummond Island

Weather History for KDRM - February, 2014

Change the Weather History Date:

Thursday, February 27, 2014

  Actual Average (KCIU) Record (KCIU)
Temperature  
Mean Temperature -5 °F -  
Max Temperature 3 °F 32 °F 43 °F (1979)
Min Temperature -18 °F 8 °F -16 °F (2014)
Degree Days  
Heating Degree Days 70    
Moisture  
Dew Point -13 °F    
Average Humidity 66    
Maximum Humidity 77    
Minimum Humidity 55    
Precipitation  
Precipitation 0.00 in - - ()
Sea Level Pressure  
Sea Level Pressure 29.79 in    
Wind  
Wind Speed 6 mph (WNW)    
Max Wind Speed 15 mph    
Max Gust Speed 28 mph    
Visibility 8 miles    
Events      
Averages and records for this station are not official NWS values.
T = Trace of Precipitation, MM = Missing Value Source: NWS Daily Summary

Daily Weather History Graph

Daily Weather History Graph

Search for Another Location

Airport or City:

Trip Planner

Search our weather history database for the weather conditions in past years. The results will help you decide how hot, cold, wet, or windy it might be!

Date:

Astronomy

Feb. 27, 2014 Rise Set
Actual Time 7:17 AM EST 6:18 PM EST
Civil Twilight 6:47 AM EST 6:48 PM EST
Nautical Twilight 6:12 AM EST 7:23 PM EST
Astronomical Twilight 5:38 AM EST 7:58 PM EST
Moon 5:53 AM EST (2/27) 4:40 PM EST (2/27)
Length of Visible Light 12h 01m
Length of Day
11h 01m
Waning Crescent, 4% of the Moon is Illuminated
Feb 27
Waning Crescent
Mar 1
New
Mar 8
First Quarter
Mar 16
Full
Mar 23
Last Quarter

Hourly Weather History & Observations

Time (EST) Temp. Windchill Dew Point Humidity Pressure Visibility Wind Dir Wind Speed Gust Speed Precip Events Conditions
12:14 AM 5.0 °F - -2.4 °F 72% 29.41 in 10.0 mi Calm Calm - N/A   Scattered Clouds
12:35 AM 4.6 °F -4.5 °F -2.6 °F 72% 29.42 in 10.0 mi NW 4.6 mph - N/A   Mostly Cloudy
12:55 AM 4.1 °F -6.7 °F -2.7 °F 73% 29.42 in 10.0 mi NW 5.8 mph - N/A   Overcast
1:15 AM 3.6 °F -8.7 °F -3.1 °F 74% 29.43 in 10.0 mi WNW 6.9 mph - N/A   Overcast
1:35 AM 2.7 °F -4.8 °F -4.0 °F 74% 29.44 in 10.0 mi WNW 3.5 mph - N/A   Overcast
1:55 AM 1.4 °F -6.2 °F -4.4 °F 77% 29.44 in 10.0 mi WNW 3.5 mph - N/A   Scattered Clouds
2:15 AM -0.0 °F -7.9 °F -6.3 °F 75% 29.44 in 10.0 mi NNW 3.5 mph - N/A   Scattered Clouds
2:34 AM -0.4 °F -10.4 °F -8.3 °F 69% 29.44 in 10.0 mi NNW 4.6 mph - N/A   Scattered Clouds
2:55 AM -0.8 °F -13.9 °F -8.9 °F 69% 29.45 in 10.0 mi NW 6.9 mph - N/A   Overcast
3:15 AM -0.9 °F -12.7 °F -9.6 °F 67% 29.45 in 10.0 mi NW 5.8 mph - N/A   Overcast
3:35 AM -1.3 °F -11.4 °F -10.3 °F 66% 29.46 in 10.0 mi WNW 4.6 mph - N/A   Overcast
3:55 AM -2.0 °F -16.6 °F -11.2 °F 65% 29.46 in 10.0 mi WNW 8.1 mph - N/A   Overcast
4:15 AM -2.2 °F -12.5 °F -12.1 °F 63% 29.47 in 10.0 mi WNW 4.6 mph - N/A   Overcast
4:35 AM -2.7 °F -11.0 °F -12.3 °F 64% 29.47 in 10.0 mi West 3.5 mph - N/A   Overcast
4:55 AM -3.3 °F -15.4 °F -11.7 °F 67% 29.48 in 10.0 mi West 5.8 mph - N/A   Scattered Clouds
5:15 AM -4.0 °F -14.6 °F -12.1 °F 68% 29.48 in 10.0 mi West 4.6 mph - N/A   Clear
5:35 AM -4.0 °F -12.4 °F -12.3 °F 68% 29.49 in 10.0 mi West 3.5 mph - N/A   Clear
5:55 AM -3.5 °F -15.7 °F -11.9 °F 67% 29.49 in 10.0 mi West 5.8 mph - N/A   Clear
6:15 AM -3.5 °F -11.8 °F -11.6 °F 68% 29.49 in 10.0 mi West 3.5 mph - N/A   Clear
6:35 AM -3.5 °F -17.1 °F -11.0 °F 70% 29.50 in 10.0 mi West 6.9 mph - N/A   Mostly Cloudy
6:55 AM -2.9 °F -15.0 °F -9.2 °F 74% 29.51 in 4.0 mi West 5.8 mph - N/A   Haze
7:15 AM -3.3 °F -16.9 °F -9.4 °F 75% 29.53 in 10.0 mi WNW 6.9 mph - N/A   Mostly Cloudy
7:35 AM -3.8 °F -12.2 °F -10.3 °F 74% 29.55 in 10.0 mi NW 3.5 mph - N/A   Mostly Cloudy
7:54 AM -3.1 °F -17.9 °F -10.3 °F 71% 29.57 in 10.0 mi NW 8.1 mph - N/A   Overcast
8:15 AM -2.6 °F -18.4 °F -9.8 °F 71% 29.59 in 10.0 mi NW 9.2 mph 17.3 mph N/A   Overcast
8:35 AM -1.7 °F -18.3 °F -9.9 °F 68% 29.61 in 10.0 mi NW 10.4 mph 19.6 mph N/A   Overcast
8:54 AM -1.7 °F -18.3 °F -8.5 °F 73% 29.63 in 7.0 mi WNW 10.4 mph 18.4 mph N/A   Overcast
9:15 AM -2.6 °F -18.4 °F -9.6 °F 72% 29.65 in 7.0 mi WNW 9.2 mph 16.1 mph N/A   Overcast
9:35 AM -1.8 °F -17.5 °F -9.6 °F 70% 29.67 in 5.0 mi WNW 9.2 mph 20.7 mph N/A   Haze
9:55 AM -1.8 °F -16.4 °F -9.4 °F 70% 29.68 in 5.0 mi WNW 8.1 mph 23.0 mph N/A   Haze
10:15 AM -3.1 °F -21.0 °F -10.5 °F 71% 29.70 in 3.0 mi WNW 11.5 mph 21.9 mph N/A   Haze
10:35 AM -2.2 °F -19.9 °F -10.3 °F 68% 29.72 in 3.0 mi WNW 11.5 mph 23.0 mph N/A   Haze
10:55 AM -2.2 °F -21.5 °F -10.7 °F 67% 29.73 in 4.0 mi NW 13.8 mph 23.0 mph N/A   Haze
11:15 AM -1.8 °F -21.0 °F -10.8 °F 66% 29.76 in 4.0 mi WNW 13.8 mph 24.2 mph N/A   Haze
11:35 AM -2.2 °F -21.5 °F -11.2 °F 66% 29.77 in 3.0 mi WNW 13.8 mph 26.5 mph N/A   Haze
11:55 AM -2.0 °F -17.7 °F -11.4 °F 64% 29.79 in 4.0 mi WNW 9.2 mph 26.5 mph N/A   Haze
12:15 PM -2.0 °F -19.6 °F -11.0 °F 66% 29.82 in 4.0 mi WNW 11.5 mph 21.9 mph N/A   Haze
12:34 PM -2.4 °F -18.2 °F -12.5 °F 62% 29.83 in 5.0 mi WNW 9.2 mph 24.2 mph N/A   Haze
12:55 PM -1.8 °F -19.4 °F -12.3 °F 61% 29.84 in 5.0 mi WNW 11.5 mph 20.7 mph N/A   Haze
1:15 PM -2.2 °F -20.7 °F -12.5 °F 62% 29.86 in 5.0 mi West 12.7 mph 27.6 mph N/A   Haze
1:35 PM -1.8 °F -19.4 °F -11.9 °F 62% 29.87 in 5.0 mi NW 11.5 mph 21.9 mph N/A   Haze
1:55 PM -1.8 °F -18.5 °F -12.3 °F 61% 29.88 in 5.0 mi WNW 10.4 mph 26.5 mph N/A   Haze
2:14 PM -2.2 °F -19.9 °F -12.5 °F 62% 29.90 in 4.0 mi NW 11.5 mph 25.3 mph N/A   Haze
2:35 PM -2.2 °F -21.5 °F -13.4 °F 59% 29.90 in 4.0 mi WNW 13.8 mph 23.0 mph N/A   Haze
2:55 PM -1.7 °F -19.2 °F -13.5 °F 57% 29.92 in 5.0 mi WNW 11.5 mph 26.5 mph N/A   Haze
3:15 PM -1.7 °F -18.3 °F -14.1 °F 56% 29.94 in 5.0 mi WNW 10.4 mph 23.0 mph N/A   Haze
3:35 PM -1.7 °F -19.2 °F -13.7 °F 57% 29.95 in 10.0 mi NW 11.5 mph 17.3 mph N/A   Clear
3:55 PM -1.7 °F -21.5 °F -14.3 °F 55% 29.96 in 5.0 mi WNW 15.0 mph 26.5 mph N/A   Haze
4:15 PM -2.2 °F -19.9 °F -14.1 °F 57% 29.98 in 7.0 mi WNW 11.5 mph 23.0 mph N/A   Clear
4:35 PM -2.2 °F -18.0 °F -14.8 °F 55% 29.99 in 7.0 mi WNW 9.2 mph 23.0 mph N/A   Clear
4:55 PM -2.6 °F -18.4 °F -15.2 °F 55% 30.00 in 10.0 mi WNW 9.2 mph 21.9 mph N/A   Clear
5:15 PM -3.5 °F -20.5 °F -14.3 °F 60% 30.02 in 10.0 mi NW 10.4 mph 18.4 mph N/A   Clear
5:35 PM -4.0 °F -19.0 °F -16.4 °F 55% 30.03 in 10.0 mi WNW 8.1 mph 21.9 mph N/A   Clear
5:54 PM -4.9 °F -23.2 °F -17.0 °F 56% 30.04 in 10.0 mi NW 11.5 mph 18.4 mph N/A   Clear
6:15 PM -5.8 °F -22.4 °F -16.6 °F 60% 30.05 in 10.0 mi NW 9.2 mph 17.3 mph N/A   Clear
6:35 PM -6.2 °F -22.8 °F -16.6 °F 61% 30.06 in 10.0 mi NW 9.2 mph 16.1 mph N/A   Clear
6:55 PM -6.0 °F -22.6 °F -17.7 °F 57% 30.08 in 10.0 mi NW 9.2 mph - N/A   Clear
7:15 PM -6.5 °F -20.8 °F -17.0 °F 61% 30.09 in 10.0 mi NW 6.9 mph - N/A   Clear
7:35 PM -7.1 °F -21.4 °F -17.1 °F 62% 30.10 in 10.0 mi NW 6.9 mph - N/A   Clear
7:55 PM -7.6 °F -20.6 °F -17.1 °F 63% 30.10 in 10.0 mi NW 5.8 mph - N/A   Clear
8:15 PM -8.0 °F -19.2 °F -17.1 °F 64% 30.12 in 10.0 mi NW 4.6 mph - N/A   Clear
8:35 PM -8.5 °F -19.8 °F -17.5 °F 65% 30.12 in 10.0 mi NW 4.6 mph - N/A   Clear
8:55 PM -9.4 °F -20.9 °F -17.9 °F 66% 30.13 in 10.0 mi WNW 4.6 mph - N/A   Clear
9:15 PM -9.8 °F -21.3 °F -18.4 °F 66% 30.13 in 10.0 mi WNW 4.6 mph - N/A   Clear
9:35 PM -10.3 °F -21.9 °F -18.6 °F 67% 30.14 in 10.0 mi NW 4.6 mph - N/A   Clear
9:55 PM -10.5 °F - -18.9 °F 66% 30.14 in 10.0 mi Calm Calm - N/A   Clear
10:15 PM -11.2 °F -20.6 °F -19.3 °F 67% 30.15 in 10.0 mi NW 3.5 mph - N/A   Clear
10:34 PM -11.2 °F - -19.3 °F 67% 30.15 in 10.0 mi Calm Calm - N/A   Clear
10:55 PM -11.7 °F - -19.8 °F 67% 30.15 in 10.0 mi Calm Calm - N/A   Clear
11:15 PM -13.7 °F - -20.6 °F 71% 30.16 in 10.0 mi Calm Calm - N/A   Clear
11:35 PM -15.9 °F - -21.5 °F 76% 30.17 in 10.0 mi Calm Calm - N/A   Clear
11:55 PM -18.6 °F - -24.2 °F 76% 30.17 in 10.0 mi Calm Calm - N/A   Clear